FW6259 Weather Reports


time (UTC)temp
C
wind
direction
speed
KPH
gust
KPH
rain 1hr
cm
rain 24hr
cm
rain mn
cm
humidity
%
barometer
mb
20260505234554 7 225 6.4 27.4 0.00 0.69 0.10 64 1008.9
20260505233055 8 238 12.9 22.5 0.00 0.69 0.10 62 1008.9
20260505231506 7 213 11.3 20.9 0.00 0.69 0.10 61 1009.0
20260505224505 8 256 12.9 32.2 0.00 0.69 0.10 64 1008.9
20260505223050 9 162 12.9 30.6 0.00 0.69 0.10 59 1008.8
20260505221602 8 194 14.5 27.4 0.00 0.69 0.10 58 1008.6
20260505220155 8 179 14.5 29.0 0.00 0.69 0.10 57 1008.4
20260505214547 8 44 8.0 25.7 0.00 0.69 0.10 58 1008.2
20260505213100 8 207 14.5 25.7 0.00 0.69 0.10 57 1007.7
20260505211554 8 241 9.7 27.4 0.00 0.69 0.10 61 1007.6
20260505210059 8 188 9.7 22.5 0.00 0.69 0.10 60 1007.4
20260505204602 8 232 6.4 24.1 0.00 0.71 0.10 60 1007.6
20260505203056 8 254 14.5 29.0 0.00 0.71 0.10 58 1007.3
20260505201503 8 243 12.9 30.6 0.00 0.71 0.10 57 1007.1
20260505200055 8 199 11.3 27.4 0.00 0.71 0.10 57 1006.9
20260505194605 9 258 14.5 29.0 0.00 0.71 0.10 57 1006.9
20260505193107 9 190 11.3 29.0 0.00 0.71 0.10 56 1006.8
20260505191608 10 201 11.3 30.6 0.00 0.71 0.10 56 1006.6
20260505190051 10 240 16.1 32.2 0.00 0.71 0.10 54 1006.7
20260505184547 9 236 16.1 38.6 0.00 0.71 0.10 57 1006.6
20260505183100 9 196 16.1 29.0 0.00 0.71 0.10 59 1006.2
20260505181555 9 182 11.3 25.7 0.00 0.71 0.10 65 1006.2
20260505180054 8 177 16.1 30.6 0.00 0.71 0.10 66 1006.2
20260505174501 7 213 9.7 30.6 0.00 0.71 0.10 72 1006.6
20260505173108 7 195 6.4 25.7 0.00 0.71 0.10 77 1006.6
20260505171628 6 237 9.7 20.9 0.00 0.71 0.10 78 1006.7
20260505170054 6 230 3.2 14.5 0.00 0.71 0.10 83 1006.6
20260505164548 6 159 4.8 17.7 0.00 0.71 0.10 85 1006.6
20260505163002 6 134 11.3 19.3 0.00 0.71 0.10 85 1006.5
20260505161527 6 166 9.7 22.5 0.00 0.71 0.10 85 1006.5
20260505153052 4 184 3.2 9.7 0.03 0.71 0.10 93 1006.5
20260505151545 4 235 1.6 12.9 0.03 0.71 0.10 93 1006.1
20260505150127 3 212 3.2 8.0 0.00 0.69 0.08 96 1006.3
20260505124607 3 6 0.0 3.2 0.05 0.66 0.05 97 1006.4
20260505123059 3 109 0.0 4.8 0.00 0.61 0.00 97 1006.4
20260505121620 4 244 0.0 3.2 0.00 0.61 0.00 96 1006.4
20260505120040 3 101 0.0 1.6 0.00 0.61 0.00 98 1006.3
20260505114557 3 245 1.6 4.8 0.00 0.61 0.00 98 1006.6
20260505113056 3 41 0.0 6.4 0.00 0.61 0.00 98 1006.5
20260505111550 3 227 0.0 1.6 0.00 0.61 0.00 98 1006.6
20260505101503 3 136 0.0 3.2 0.00 0.61 0.00 97 1007.0
20260505100136 4 186 0.0 3.2 0.00 0.61 0.00 97 1007.0
20260505094550 4 229 0.0 4.8 0.00 0.61 0.00 96 1007.4
20260505093100 4 184 0.0 4.8 0.00 0.61 0.00 97 1007.7
20260505091618 4 144 0.0 3.2 0.00 0.61 0.00 97 1007.8
20260505090057 5 252 0.0 3.2 0.00 0.61 0.00 97 1008.0
20260505084547 5 124 0.0 1.6 0.03 0.64 0.00 97 1008.2
20260505083056 5 210 0.0 3.2 0.03 0.64 0.00 97 1008.0
20260505081552 5 202 0.0 4.8 0.03 0.64 0.00 97 1008.5
20260505080052 5 240 1.6 4.8 0.03 0.64 0.00 97 1008.6
20260505074559 5 263 1.6 3.2 0.00 0.66 0.61 97 1009.0
20260505073059 5 228 0.0 0.0 0.03 0.66 0.61 97 1009.0
20260505071606 5 224 0.0 1.6 0.03 0.66 0.61 97 1009.3
20260505070059 5 109 0.0 3.2 0.05 0.66 0.61 96 1009.5
20260505064559 5 193 1.6 8.0 0.05 0.76 0.61 96 1009.6
20260505063050 5 182 0.0 4.8 0.05 0.71 0.58 96 1009.9
20260505061557 5 245 0.0 6.4 0.08 0.71 0.58 96 1010.1
20260505060054 5 279 3.2 6.4 0.05 0.71 0.56 96 1010.4
20260505054648 6 224 1.6 3.2 0.05 0.89 0.56 96 1010.6
20260505053059 6 219 1.6 8.0 0.05 0.86 0.53 95 1010.7
20260505051556 6 242 0.0 1.6 0.03 0.84 0.51 96 1011.0
20260505041604 6 65 0.0 3.2 0.13 0.99 0.48 95 1011.8
20260505040049 6 338 0.0 1.6 0.15 0.99 0.48 96 1012.1
20260505034501 6 215 0.0 3.2 0.15 1.07 0.43 95 1012.6
20260505033055 7 257 0.0 1.6 0.13 1.02 0.38 95 1012.8
20260505031553 7 262 0.0 1.6 0.13 0.99 0.36 95 1012.8
20260505030107 7 274 0.0 1.6 0.15 0.97 0.33 95 1013.0
20260505024610 7 254 0.0 0.0 0.15 1.07 0.28 94 1013.2
20260505023049 7 237 1.6 3.2 0.15 1.04 0.25 93 1013.4
20260505021554 7 320 0.0 4.8 0.13 1.02 0.23 89 1013.4
20260505020103 8 221 0.0 3.2 0.08 0.97 0.18 89 1013.6
20260505014555 8 224 1.6 3.2 0.03 0.99 0.13 86 1013.8
20260505013046 8 147 1.6 3.2 0.00 0.97 0.10 83 1013.9
20260505011545 8 88 1.6 8.0 0.00 0.97 0.10 83 1014.0
20260505010112 9 169 1.6 8.0 0.00 0.97 0.10 81 1014.4
20260505004551 9 160 3.2 14.5 0.00 1.04 0.10 80 1014.8
20260505003003 8 253 6.4 17.7 0.03 1.04 0.10 79 1015.1
20260505001518 9 148 3.2 9.7 0.05 1.04 0.10 83 1015.4